Location: ???? ?????????
(31.1304°N, 31.7111°E)
Time: 17:01:16
(UTC+00:00)

Explorer 7 - All Passes

Search period start: 26 February 2021 00:00
Search period end: 08 March 2021 00:00
Orbit: 484 x 677 km, 50.3° (Epoch: 25 February)

Date Brightness Start Highest point End Pass type
(mag) Time Alt. Az. Time Alt. Az. Time Alt. Az.
26 Feb - 11:04:41 10° SE 11:05:36 11° SE 11:06:31 10° ESE daylight
26 Feb - 12:41:05 10° SW 12:45:43 89° NNW 12:50:05 10° NE daylight
26 Feb - 14:23:57 10° WNW 14:26:39 16° NNW 14:29:15 10° N daylight
26 Feb - 19:29:56 10° NNW 19:33:00 22° NNE 19:36:00 10° E night (unlit)
26 Feb - 21:10:01 10° WNW 21:13:30 36° SW 21:16:56 10° SSE night (unlit)
27 Feb - 11:06:36 10° S 11:09:57 19° SE 11:13:12 10° E daylight
27 Feb - 12:45:45 10° WSW 12:50:16 52° NW 12:54:31 10° NE daylight
27 Feb - 14:30:13 10° NW 14:31:30 11° NNW 14:32:45 10° N daylight
27 Feb - 19:34:05 10° NNW 19:37:41 36° NE 19:41:10 10° ESE night (unlit)
27 Feb - 21:15:12 10° W 21:17:53 19° SW 21:20:34 10° S night (unlit)
28 Feb - 11:10:06 10° SSW 11:14:21 34° SE 11:18:25 10° ENE daylight
28 Feb - 12:50:44 10° W 12:54:52 32° NW 12:58:48 10° NNE daylight
28 Feb - 17:59:51 10° N 18:01:10 11° NNE 18:02:27 10° NE visible
28 Feb - 19:38:26 10° NW 19:42:16 68° NE 19:45:59 10° SE night (unlit)
01 Mar - 11:14:08 10° SSW 11:18:48 61° SE 11:23:13 10° NE daylight
01 Mar - 12:56:02 10° W 12:59:34 21° NNW 13:02:57 10° NNE daylight
01 Mar - 18:03:24 10° NNW 18:06:00 17° NNE 18:08:32 10° ENE visible
01 Mar - 19:42:58 10° NW 19:46:46 61° SW 19:50:27 10° SE night (unlit)
02 Mar - 09:40:56 10° SSE 09:43:08 13° SE 09:45:17 10° E daylight
02 Mar - 11:18:33 10° SW 11:23:18 78° NW 11:27:47 10° NE daylight
02 Mar - 13:01:43 10° WNW 13:04:20 15° NNW 13:06:54 10° N daylight
02 Mar - 18:07:24 10° NNW 18:10:46 26° NE 18:13:58 10° E visible
02 Mar - 19:47:47 10° WNW 19:51:11 30° SW 19:54:30 10° SSE night (unlit)
03 Mar - 09:43:42 10° S 09:47:28 23° SE 09:51:09 10° ENE daylight
03 Mar - 11:23:17 10° WSW 11:27:51 46° NW 11:32:11 10° NE daylight
03 Mar - 13:08:06 10° NW 13:09:12 11° NNW 13:10:19 10° N daylight
03 Mar - 18:11:38 10° NW 18:15:25 43° NE 18:19:02 10° ESE visible
03 Mar - 19:53:08 10° W 19:55:32 16° SW 19:57:54 10° SSW night (unlit)
04 Mar - 09:47:23 10° SSW 09:51:53 40° SE 09:56:12 10° ENE daylight
04 Mar - 11:28:21 10° W 11:32:29 29° NW 11:36:26 10° NNE daylight
04 Mar - 16:36:58 10° N 16:38:56 13° NNE 16:40:51 10° NE visible
04 Mar - 18:16:02 10° NW 18:19:58 82° NE 18:23:45 10° SE visible
05 Mar - 09:51:32 10° SW 09:56:19 71° SE 10:00:56 10° NE daylight
05 Mar - 11:33:43 10° W 11:37:12 20° NNW 11:40:34 10° NNE daylight
05 Mar - 16:40:46 10° NNW 16:43:44 19° NNE 16:46:36 10° ENE visible
05 Mar - 18:20:37 10° WNW 18:24:27 50° SW 18:28:06 10° SSE visible
06 Mar - 08:17:44 10° SSE 08:20:37 16° SE 08:23:27 10° E daylight
06 Mar - 09:56:01 10° SW 10:00:50 69° NW 10:05:26 10° NE daylight
06 Mar - 11:39:27 10° WNW 11:42:00 14° NNW 11:44:29 10° N daylight
06 Mar - 16:44:51 10° NNW 16:48:28 30° NE 16:51:55 10° E visible
06 Mar - 18:25:32 10° WNW 18:28:49 26° SW 18:32:01 10° S visible
07 Mar - 08:20:52 10° S 08:24:58 27° SE 08:28:58 10° ENE daylight
07 Mar - 10:00:51 10° WSW 10:05:24 42° NW 10:09:48 10° NNE daylight
07 Mar - 11:45:57 10° NNW 11:46:54 11° NNW 11:47:50 10° N daylight
07 Mar - 15:10:47 10° N 15:11:46 11° NNE 15:12:44 10° NE daylight
07 Mar - 16:49:07 10° NW 16:53:06 52° NE 16:56:52 10° ESE visible
07 Mar - 18:31:06 10° W 18:33:09 14° SW 18:35:10 10° SSW visible
